Location: Pontbriand
(46.1542°N, 71.2542°W)
Time: 16:33:02
(UTC+00:00)

Envisat - Pass Details

Date: 05 December 2021
Orbit: 764 x 766 km, 98.2° (Epoch: 16 January)

Event Time Altitude Azimuth Distance (km) Brightness Sun altitude
Rises 09:54:28 0° 13° (NNE) 3,244 6.3 -22.9°
Reaches altitude 10° 09:56:47 10° 13° (NNE) 2,313 5.5 -22.5°
Maximum altitude 10:01:53 88° 285° (WNW) 772 2.9 -21.7°
Drops below altitude 10° 10:06:58 10° 196° (SSW) 2,295 5.4 -20.8°
Sets 10:09:15 0° 196° (SSW) 3,216 6.2 -20.4°
